Regional Weather Roundup
Issued by NWS

Home | Current Version | Previous Version | Graphics & Text | Print | Product List | Glossary On
Versions: 1 2 3 4 5 6 7 8 9 10 11 12 13 14 15 16 17 18 19 20 21 22 23 24 25 26 27
000
ASUS45 KTFX 251710
RWRMT
MONTANA REGIONAL WEATHER ROUNDUP
NATIONAL WEATHER SERVICE GREAT FALLS MT
1100 AM MDT WED MAY 25 2016

NOTE: "FAIR" INDICATES FEW OR NO CLOUDS BELOW 12000 FEET WITH NO
SIGNIFICANT WEATHER AND/OR OBSTRUCTIONS TO VISIBILITY.

MTZ001>007-043-251800-
WEST OF THE DIVIDE

CITY           SKY/WX    TMP DP  RH WIND       PRES   REMARKS
KALISPELL      CLOUDY    53  47  79 S8        29.98R
MISSOULA       CLOUDY    50  44  80 SE3       30.03F
BUTTE          PTSUNNY   50  34  54 N9        30.02S
MULLAN PASS    CLOUDY    43  42  97 VRB6      30.05R FOG
ANACONDA         N/A     54  37  54 NE5       30.00S
DEER LODGE       N/A     50  39  66 E3        30.02S
EUREKA           N/A     63  45  51 CALM      29.95F
HAMILTON         N/A     57  37  47 S3        30.02R
LIBBY            N/A     59  46  63 CALM      29.97F
$$

MTZ008-052>055-251800-
SOUTHWEST MONTANA

CITY           SKY/WX    TMP DP  RH WIND       PRES   REMARKS
BOZEMAN        MOSUNNY   56  40  55 NE3       29.98S
DILLON         SUNNY     54  38  54 N7        29.99S
ENNIS          CLOUDY    52  37  58 VRB3      30.04S
$$

MTZ009-010-012-014-046-048-049-054-251800-
EAST SLOPES AND CENTRAL MONTANA

CITY           SKY/WX    TMP DP  RH WIND       PRES   REMARKS
CUT BANK       SUNNY     61  38  42 NW3       29.87F
GREAT FALLS    SUNNY     60  39  45 SW16      29.89F
MALMSTROM AFB  MOSUNNY   60  39  47 W10G22    29.89S
HELENA         MOSUNNY   59  39  47 W15G23    29.94F
CHOTEAU          N/A     61  37  41 CALM      29.88S
$$

MTZ011-013-016-021-045-047-050-051-251800-
NORTH CENTRAL MONTANA

CITY           SKY/WX    TMP DP  RH WIND       PRES   REMARKS
HAVRE            N/A    N/A N/A N/A MISG      29.87S
LEWISTOWN      MOSUNNY   59  36  42 VRB3      29.90S
N BAR RANCH    CLOUDY    55  37  50 S6G13     29.92S
CHINOOK          N/A     61  46  59 CALM      29.87S
$$

MTZ017>020-022>027-061-062-251800-
NORTHEAST MONTANA

CITY           SKY/WX    TMP DP  RH WIND       PRES   REMARKS
GLASGOW        MOSUNNY   59  45  59 S6        29.87S
JORDAN           N/A     63  41  44 W6        29.87S
SIDNEY         CLOUDY    54  48  82 NW16      29.86R
WOLF POINT     PTSUNNY   58  48  69 NE5       29.89S
PLENTYWOOD       N/A     50  48  93 NW12      29.88F
POPLAR           N/A     54  46  76 N9        29.89R
$$

MTZ028>42-056>058-251800-
SOUTHCENTRAL AND SOUTHEAST MONTANA

CITY           SKY/WX    TMP DP  RH WIND       PRES   REMARKS
BAKER          PTSUNNY   56  44  64 N21G28    29.87R
BILLINGS       MOSUNNY   60  43  53 VRB3      29.91F
LIVINGSTON     MOSUNNY   58  37  45 W22G28    29.94S
MILES CITY     CLOUDY    57  51  80 S5        29.88S
FORSYTH          N/A     61  48  63 W9        29.87F
$$

REGIONAL REPORTS...DAKOTAS

CITY           SKY/WX    TMP DP  RH WIND       PRES   REMARKS
WILLISTON      CLOUDY    53  49  86 N18       29.83F
MINOT          CLOUDY    61  54  77 N7        29.81S
DICKINSON      CLOUDY    57  52  83 W14       29.79S
BEACH          CLOUDY    48  48 100 NW18G33   29.89R
CROSBY         LGT RAIN  54  54 100 N12       29.86S
WATFORD CITY   CLOUDY    54  52  94 NW16G22   29.81F
BISMARCK       CLOUDY    61  58  90 E10       29.79F
GRAND FORKS    TSTM      66  59  78 E6        29.79R
FARGO          LGT RAIN  65  60  84 SE7       29.76F
BUFFALO SD       N/A     58  47  66 NW17G25   29.79R
RAPID CITY     PTSUNNY   66  52  60 E7        29.84S
$$

REGIONAL REPORTS...WYOMING/IDAHO/WASHINGTON

CITY           SKY/WX    TMP DP  RH WIND       PRES   REMARKS
GILLETTE       CLOUDY    54  45  71 W7        29.93R
SHERIDAN       CLOUDY    58  44  60 CALM      29.91F
BUFFALO WY     SUNNY     54  42  64 MISG      29.95S
CODY           CLOUDY    48  45  87 N7        29.95R
YELLOWSTONE LA   N/A     37  34  89 NW3       30.07R
IDAHO FALLS    CLOUDY    52  44  74 SW9       30.03S
SALMON         CLOUDY    54  39  58 N7        30.02R
BOISE          MOSUNNY   62  40  44 NW13      30.02S
SPOKANE        PTSUNNY   58  46  64 S9        30.01R
$$

REGIONAL REPORTS...ALBERTA

CITY           SKY/WX    TMP DP  RH WIND       PRES   REMARKS
EDMONTON       SUNNY     64  46  52 S12G17    29.85R
CALGARY        MOSUNNY   61  43  51 S8        29.88S
LETHBRIDGE     MOSUNNY   57  45  62 VRB3      29.87S
MEDICINE HAT   PTSUNNY   57  46  67 NE6       29.88S
WATERTON GATE    N/A     59  41  51 SW18G26     N/A
CARDSTON         N/A     61  43  51 NW10G18     N/A
MILK RIVER       N/A     61  43  51 NE6         N/A
ONEFOUR          N/A     59  41  51 E3          N/A
$$

REGIONAL REPORTS...SASKATCHEWAN

CITY           SKY/WX    TMP DP  RH WIND       PRES   REMARKS
SWIFT CURRENT  CLOUDY    52  46  82 CALM      29.88S
REGINA         LGT RAIN  52  48  87 NW5       29.88F
SASKATOON      PTSUNNY   55  50  82 VRB6      29.92S
CYPRESS HILLS    N/A     52  43  71 N3          N/A
VAL MARIE        N/A     54  46  76 SW9         N/A
ROCKGLEN         N/A     54  45  71 E2          N/A
ASSINIBOIA       N/A     63  46  55 S9          N/A
$$




USA.gov is the U.S. government's official web portal to all federal, state and local government web resources and services.